TimeAKST,TemperatureF,Dew PointF,Humidity,Sea Level PressureIn,VisibilityMPH,Wind Direction,Wind SpeedMPH,Gust SpeedMPH,PrecipitationIn,Events,Conditions,WindDirDegrees,DateUTC
12:16 AM,-11.2,-23.8,54,29.79,8.0,Calm,Calm,-,N/A,,Clear,0,2013-03-07 09:16:00
12:36 AM,-14.8,-23.8,64,29.78,9.0,Calm,Calm,-,N/A,,Clear,0,2013-03-07 09:36:00
12:56 AM,-16.6,-27.4,58,29.79,10.0,Calm,Calm,-,N/A,,Clear,0,2013-03-07 09:56:00
1:16 AM,-13.0,-9999,N/A,29.79,10.0,Calm,Calm,-,N/A,,Clear,0,2013-03-07 10:16:00
1:36 AM,-16.6,-9999,N/A,29.79,10.0,Calm,Calm,-,N/A,,Clear,0,2013-03-07 10:36:00
1:56 AM,-16.6,-9999,N/A,29.79,10.0,Calm,Calm,-,N/A,,Clear,0,2013-03-07 10:56:00
2:16 AM,-16.6,-9999,N/A,29.79,10.0,Calm,Calm,-,N/A,,Clear,0,2013-03-07 11:16:00
2:36 AM,-14.8,-9999,N/A,29.79,8.0,Calm,Calm,-,N/A,,Clear,0,2013-03-07 11:36:00
2:56 AM,-14.8,-9999,N/A,29.79,9.0,NNE,3.5,-,N/A,,Clear,30,2013-03-07 11:56:00
3:16 AM,-16.6,-9999,N/A,29.80,7.0,Calm,Calm,-,N/A,,Clear,0,2013-03-07 12:16:00
3:36 AM,-18.4,-9999,N/A,29.79,10.0,Calm,Calm,-,N/A,,Clear,0,2013-03-07 12:36:00
3:56 AM,-20.2,-9999,N/A,29.79,10.0,Calm,Calm,-,N/A,,Clear,0,2013-03-07 12:56:00
4:16 AM,-18.4,-27.4,63,29.79,10.0,Calm,Calm,-,N/A,,Clear,0,2013-03-07 13:16:00
4:36 AM,-18.4,-9999,N/A,29.78,7.0,Calm,Calm,-,N/A,,Clear,0,2013-03-07 13:36:00
4:56 AM,-20.2,-9999,N/A,29.78,7.0,Calm,Calm,-,N/A,,Clear,0,2013-03-07 13:56:00
5:16 AM,-20.2,-29.2,63,29.77,10.0,Calm,Calm,-,N/A,,Clear,0,2013-03-07 14:16:00
5:36 AM,-20.2,-27.4,69,29.77,10.0,Calm,Calm,-,N/A,,Clear,0,2013-03-07 14:36:00
5:56 AM,-20.2,-9999,N/A,29.77,10.0,Calm,Calm,-,N/A,,Clear,0,2013-03-07 14:56:00
6:16 AM,-18.4,-9999,N/A,29.77,10.0,NE,3.5,-,N/A,,Clear,50,2013-03-07 15:16:00
6:36 AM,-20.2,-9999,N/A,29.77,10.0,Calm,Calm,-,N/A,,Clear,0,2013-03-07 15:36:00
6:56 AM,-20.2,-9999,N/A,29.77,10.0,Calm,Calm,-,N/A,,Clear,0,2013-03-07 15:56:00
7:16 AM,-22.0,-9999,N/A,29.76,9.0,Calm,Calm,-,N/A,,Clear,0,2013-03-07 16:16:00
7:36 AM,-18.4,-9999,N/A,29.76,10.0,Calm,Calm,-,N/A,,Clear,0,2013-03-07 16:36:00
7:56 AM,-22.0,-9999,N/A,29.77,10.0,Calm,Calm,-,N/A,,Clear,0,2013-03-07 16:56:00
8:16 AM,-18.4,-9999,N/A,29.77,9.0,NE,3.5,-,N/A,,Clear,40,2013-03-07 17:16:00
8:36 AM,-18.4,-9999,N/A,29.77,10.0,East,3.5,-,N/A,,Clear,90,2013-03-07 17:36:00
8:56 AM,-16.6,-9999,N/A,29.77,9.0,Calm,Calm,-,N/A,,Clear,0,2013-03-07 17:56:00
9:16 AM,-14.8,-25.6,58,29.77,9.0,Calm,Calm,-,N/A,,Clear,0,2013-03-07 18:16:00
9:36 AM,-14.8,-27.4,53,29.76,10.0,Calm,Calm,-,N/A,,Clear,0,2013-03-07 18:36:00
9:56 AM,-11.2,-11.2,100,29.76,10.0,ENE,3.5,-,N/A,,Clear,70,2013-03-07 18:56:00
10:16 AM,-11.2,-25.6,49,29.75,10.0,NE,4.6,-,N/A,,Clear,50,2013-03-07 19:16:00
10:36 AM,-9.4,-9999,N/A,29.75,10.0,NNE,6.9,-,N/A,,Clear,30,2013-03-07 19:36:00
10:56 AM,-7.6,-9999,N/A,29.76,10.0,NNE,4.6,-,N/A,,Clear,30,2013-03-07 19:56:00
11:16 AM,-7.6,-9999,N/A,29.76,10.0,NE,4.6,-,N/A,,Clear,50,2013-03-07 20:16:00
11:36 AM,-5.8,-27.4,35,29.76,10.0,ENE,3.5,-,N/A,,Clear,70,2013-03-07 20:36:00
11:56 AM,-5.8,-23.8,42,29.76,10.0,NNE,4.6,-,N/A,,Clear,20,2013-03-07 20:56:00
12:16 PM,-5.8,-16.6,60,29.75,10.0,NNE,4.6,-,N/A,,Clear,30,2013-03-07 21:16:00
12:36 PM,-5.8,-18.4,55,29.75,10.0,NNE,5.8,-,N/A,,Clear,30,2013-03-07 21:36:00
12:56 PM,-4.0,-9999,N/A,29.76,10.0,NE,5.8,-,N/A,,Clear,50,2013-03-07 21:56:00
1:16 PM,-2.2,-29.2,27,29.76,10.0,NNE,3.5,-,N/A,,Clear,30,2013-03-07 22:16:00
1:36 PM,-2.2,-9999,N/A,29.75,10.0,Calm,Calm,-,N/A,,Clear,0,2013-03-07 22:36:00
1:56 PM,-0.4,-25.6,30,29.74,10.0,NNE,4.6,-,N/A,,Clear,30,2013-03-07 22:56:00
2:16 PM,1.4,-20.2,36,29.74,10.0,North,3.5,-,N/A,,Clear,10,2013-03-07 23:16:00
2:36 PM,3.2,-11.2,51,29.73,10.0,NNE,5.8,-,N/A,,Clear,20,2013-03-07 23:36:00
2:56 PM,3.2,-9.4,56,29.73,10.0,NNE,4.6,-,N/A,,Clear,20,2013-03-07 23:56:00
3:16 PM,3.2,-16.6,39,29.73,10.0,North,5.8,-,N/A,,Clear,10,2013-03-08 00:16:00
3:36 PM,1.4,-22.0,33,29.72,10.0,North,4.6,-,N/A,,Clear,350,2013-03-08 00:36:00
3:56 PM,3.2,-20.2,33,29.73,10.0,NNW,4.6,-,N/A,,Clear,340,2013-03-08 00:56:00
4:16 PM,3.2,-16.6,39,29.73,10.0,North,4.6,-,N/A,,Clear,350,2013-03-08 01:16:00
4:36 PM,3.2,-18.4,36,29.72,10.0,NNE,5.8,-,N/A,,Clear,20,2013-03-08 01:36:00
4:56 PM,3.2,-18.4,36,29.72,10.0,NNE,6.9,-,N/A,,Clear,20,2013-03-08 01:56:00
5:16 PM,1.4,-18.4,39,29.72,10.0,NNE,8.1,-,N/A,,Clear,30,2013-03-08 02:16:00
5:36 PM,1.4,-14.8,47,29.71,10.0,NE,9.2,-,N/A,,Clear,40,2013-03-08 02:36:00
5:56 PM,1.4,-13.0,51,29.70,10.0,NE,9.2,-,N/A,,Clear,40,2013-03-08 02:56:00
6:16 PM,-0.4,-5.8,78,29.71,10.0,NE,6.9,-,N/A,,Clear,40,2013-03-08 03:16:00
6:36 PM,-0.4,-0.4,100,29.70,10.0,ENE,5.8,-,N/A,,Clear,70,2013-03-08 03:36:00
6:56 PM,-0.4,-9999,N/A,29.69,10.0,NE,5.8,-,N/A,,Clear,40,2013-03-08 03:56:00
7:16 PM,-2.2,-29.2,27,29.70,10.0,ENE,5.8,-,N/A,,Clear,60,2013-03-08 04:16:00
7:36 PM,-0.4,-27.4,27,29.70,10.0,East,3.5,-,N/A,,Clear,80,2013-03-08 04:36:00
7:56 PM,-2.2,-23.8,35,29.70,10.0,ENE,3.5,-,N/A,,Clear,70,2013-03-08 04:56:00
8:16 PM,-2.2,-18.4,46,29.71,10.0,NNE,3.5,-,N/A,,Clear,30,2013-03-08 05:16:00
8:36 PM,-2.2,-16.6,50,29.70,10.0,NE,5.8,-,N/A,,Clear,40,2013-03-08 05:36:00
8:56 PM,-2.2,-9.4,71,29.69,10.0,ENE,3.5,-,N/A,,Clear,60,2013-03-08 05:56:00
9:16 PM,-2.2,-34.6,20,29.70,10.0,ENE,4.6,-,N/A,,Clear,70,2013-03-08 06:16:00
9:36 PM,-4.0,-9999,N/A,29.70,10.0,NE,3.5,-,N/A,,Clear,50,2013-03-08 06:36:00
9:56 PM,-4.0,-27.4,32,29.70,10.0,East,6.9,-,N/A,,Clear,80,2013-03-08 06:56:00
10:16 PM,-0.4,-27.4,27,29.68,10.0,ENE,10.4,-,N/A,,Clear,60,2013-03-08 07:16:00
10:36 PM,-2.2,-23.8,35,29.69,10.0,East,5.8,-,N/A,,Clear,90,2013-03-08 07:36:00
10:56 PM,-0.4,-9.4,66,29.68,10.0,ENE,8.1,-,N/A,,Clear,70,2013-03-08 07:56:00
11:16 PM,1.4,-7.6,66,29.68,10.0,East,9.2,-,N/A,,Clear,80,2013-03-08 08:16:00
11:36 PM,1.4,-27.4,25,29.68,10.0,East,10.4,-,N/A,,Clear,80,2013-03-08 08:36:00
11:56 PM,3.2,-18.4,36,29.69,10.0,East,4.6,-,N/A,,Clear,80,2013-03-08 08:56:00